| time (UTC) | temp F | wind direction | speed MPH | gust MPH | rain 1hr in | rain 24hr in | rain mn in | humidity % | barometer mb |
| 20260505051200 | 69 | 173 | 2.0 | 7.0 | 0.00 | 0.00 | 0.00 | 79 | 1010.9 |
| 20260505050701 | 69 | 168 | 7.0 | 10.0 | 0.00 | 0.00 | 0.00 | 79 | 1010.8 |
| 20260505050200 | 69 | 164 | 2.0 | 4.0 | 0.00 | 0.00 | 0.00 | 79 | 1011.0 |
| 20260505041700 | 69 | 159 | 3.0 | 4.0 | 0.00 | 0.00 | 0.00 | 78 | 1011.1 |
| 20260505041205 | 69 | 172 | 3.0 | 4.0 | 0.00 | 0.00 | 0.00 | 78 | 1011.2 |
| 20260505040700 | 69 | 206 | 2.0 | 3.0 | 0.00 | 0.00 | 0.00 | 77 | 1011.1 |
| 20260505040200 | 69 | 207 | 3.0 | 5.0 | 0.00 | 0.00 | 0.00 | 77 | 1011.0 |
| 20260505035700 | 69 | 167 | 4.0 | 5.0 | 0.00 | 0.00 | 0.00 | 77 | 1011.0 |
| 20260505035201 | 69 | 147 | 2.0 | 5.0 | 0.00 | 0.00 | 0.00 | 77 | 1011.0 |
| 20260505034700 | 69 | 155 | 5.0 | 9.0 | 0.00 | 0.00 | 0.00 | 76 | 1011.1 |
| 20260505034201 | 69 | 166 | 5.0 | 7.0 | 0.00 | 0.00 | 0.00 | 76 | 1011.1 |
| 20260505033701 | 69 | 173 | 3.0 | 5.0 | 0.00 | 0.00 | 0.00 | 76 | 1011.1 |
| 20260505033200 | 69 | 163 | 7.0 | 10.0 | 0.00 | 0.00 | 0.00 | 76 | 1011.1 |
| 20260505032701 | 69 | 161 | 6.0 | 8.0 | 0.00 | 0.00 | 0.00 | 75 | 1011.1 |
| 20260505032200 | 69 | 149 | 4.0 | 6.0 | 0.00 | 0.00 | 0.00 | 75 | 1011.1 |
| 20260505031700 | 70 | 150 | 3.0 | 4.0 | 0.00 | 0.00 | 0.00 | 74 | 1011.1 |
| 20260505031200 | 70 | 163 | 6.0 | 7.0 | 0.00 | 0.00 | 0.00 | 74 | 1011.1 |
| 20260505030700 | 70 | 158 | 5.0 | 7.0 | 0.00 | 0.00 | 0.00 | 73 | 1011.2 |
| 20260505030201 | 70 | 170 | 6.0 | 9.0 | 0.00 | 0.00 | 0.00 | 73 | 1011.2 |
| 20260505025700 | 71 | 155 | 4.0 | 6.0 | 0.00 | 0.00 | 0.00 | 72 | 1011.2 |
| 20260505025201 | 71 | 176 | 1.0 | 4.0 | 0.00 | 0.00 | 0.00 | 72 | 1011.2 |
| 20260505024700 | 71 | 230 | 2.0 | 5.0 | 0.00 | 0.00 | 0.00 | 72 | 1011.1 |
| 20260505024200 | 71 | 191 | 2.0 | 4.0 | 0.00 | 0.00 | 0.00 | 71 | 1011.2 |
| 20260505023700 | 71 | 166 | 3.0 | 13.0 | 0.00 | 0.00 | 0.00 | 71 | 1011.0 |
| 20260505023201 | 71 | 169 | 2.0 | 4.0 | 0.00 | 0.00 | 0.00 | 71 | 1011.0 |
| 20260505022702 | 71 | 168 | 4.0 | 5.0 | 0.00 | 0.00 | 0.00 | 70 | 1010.9 |
| 20260505022200 | 72 | 194 | 4.0 | 5.0 | 0.00 | 0.00 | 0.00 | 70 | 1010.8 |
| 20260505021701 | 72 | 184 | 3.0 | 5.0 | 0.00 | 0.00 | 0.00 | 70 | 1010.7 |
| 20260505021200 | 72 | 163 | 3.0 | 5.0 | 0.00 | 0.00 | 0.00 | 69 | 1010.6 |
| 20260505020702 | 72 | 171 | 4.0 | 6.0 | 0.00 | 0.00 | 0.00 | 69 | 1010.5 |
| 20260505020201 | 72 | 191 | 1.0 | 3.0 | 0.00 | 0.00 | 0.00 | 68 | 1010.6 |
| 20260505015700 | 73 | 166 | 5.0 | 9.0 | 0.00 | 0.00 | 0.00 | 68 | 1010.4 |
| 20260505015200 | 73 | 168 | 5.0 | 9.0 | 0.00 | 0.00 | 0.00 | 68 | 1010.4 |
| 20260505014700 | 73 | 166 | 6.0 | 8.0 | 0.00 | 0.00 | 0.00 | 67 | 1010.3 |
| 20260505014200 | 73 | 172 | 4.0 | 8.0 | 0.00 | 0.00 | 0.00 | 67 | 1010.3 |
| 20260505013700 | 73 | 207 | 3.0 | 6.0 | 0.00 | 0.00 | 0.00 | 67 | 1010.3 |
| 20260505013200 | 73 | 160 | 5.0 | 7.0 | 0.00 | 0.00 | 0.00 | 67 | 1010.3 |
| 20260505012700 | 73 | 171 | 4.0 | 7.0 | 0.00 | 0.00 | 0.00 | 66 | 1010.2 |
| 20260505012200 | 73 | 167 | 3.0 | 6.0 | 0.00 | 0.00 | 0.00 | 66 | 1010.1 |
| 20260505011700 | 74 | 169 | 6.0 | 9.0 | 0.00 | 0.00 | 0.00 | 66 | 1010.3 |
| 20260505011201 | 74 | 160 | 3.0 | 5.0 | 0.00 | 0.00 | 0.00 | 66 | 1010.2 |
| 20260505010700 | 74 | 166 | 5.0 | 7.0 | 0.00 | 0.00 | 0.00 | 66 | 1010.4 |
| 20260505010201 | 74 | 175 | 3.0 | 6.0 | 0.00 | 0.00 | 0.00 | 65 | 1010.4 |
| 20260505005700 | 74 | 163 | 2.0 | 4.0 | 0.00 | 0.00 | 0.00 | 65 | 1010.4 |
| 20260505005200 | 74 | 157 | 3.0 | 4.0 | 0.00 | 0.00 | 0.00 | 64 | 1010.3 |
| 20260505004700 | 74 | 177 | 3.0 | 7.0 | 0.00 | 0.00 | 0.00 | 64 | 1010.4 |
| 20260505004200 | 75 | 155 | 4.0 | 6.0 | 0.00 | 0.00 | 0.00 | 64 | 1010.3 |
| 20260505003701 | 75 | 158 | 5.0 | 7.0 | 0.00 | 0.00 | 0.00 | 64 | 1010.4 |
| 20260505003200 | 75 | 153 | 6.0 | 9.0 | 0.00 | 0.00 | 0.00 | 63 | 1010.4 |
| 20260505002700 | 75 | 170 | 4.0 | 7.0 | 0.00 | 0.00 | 0.00 | 63 | 1010.5 |
| 20260505002200 | 75 | 161 | 3.0 | 5.0 | 0.00 | 0.00 | 0.00 | 63 | 1010.4 |
| 20260505001701 | 76 | 150 | 5.0 | 8.0 | 0.00 | 0.00 | 0.00 | 62 | 1010.5 |
| 20260505001200 | 76 | 201 | 3.0 | 5.0 | 0.00 | 0.00 | 0.00 | 62 | 1010.6 |
| 20260505000700 | 76 | 163 | 3.0 | 4.0 | 0.00 | 0.00 | 0.00 | 62 | 1010.7 |
| 20260505000204 | 77 | 168 | 4.0 | 6.0 | 0.00 | 0.00 | 0.00 | 61 | 1010.7 |
| 20260504235701 | 77 | 177 | 4.0 | 6.0 | 0.00 | 0.00 | 0.00 | 60 | 1010.8 |
| 20260504235200 | 77 | 184 | 2.0 | 4.0 | 0.00 | 0.00 | 0.00 | 60 | 1010.8 |
| 20260504234704 | 77 | 154 | 4.0 | 7.0 | 0.00 | 0.00 | 0.00 | 59 | 1010.7 |
| 20260504234202 | 77 | 177 | 2.0 | 4.0 | 0.00 | 0.00 | 0.00 | 60 | 1010.7 |
| 20260504233700 | 77 | 172 | 2.0 | 4.0 | 0.00 | 0.00 | 0.00 | 60 | 1010.7 |
| 20260504233200 | 77 | 190 | 3.0 | 4.0 | 0.00 | 0.00 | 0.00 | 58 | 1010.8 |
| 20260504232700 | 77 | 173 | 5.0 | 6.0 | 0.00 | 0.00 | 0.00 | 58 | 1010.9 |
| 20260504232201 | 77 | 182 | 4.0 | 6.0 | 0.00 | 0.00 | 0.00 | 58 | 1011.0 |
| 20260504231701 | 77 | 213 | 2.0 | 4.0 | 0.00 | 0.00 | 0.00 | 59 | 1011.0 |
| 20260504231200 | 77 | 175 | 2.0 | 6.0 | 0.00 | 0.00 | 0.00 | 58 | 1011.0 |
| 20260504230700 | 78 | 177 | 6.0 | 9.0 | 0.00 | 0.00 | 0.00 | 57 | 1011.0 |
| 20260504230200 | 78 | 182 | 7.0 | 10.0 | 0.00 | 0.00 | 0.00 | 56 | 1011.2 |
| 20260504225700 | 78 | 195 | 4.0 | 7.0 | 0.00 | 0.00 | 0.00 | 57 | 1011.3 |
| 20260504225200 | 78 | 173 | 8.0 | 11.0 | 0.00 | 0.00 | 0.00 | 57 | 1011.4 |
| 20260504224700 | 78 | 177 | 6.0 | 10.0 | 0.00 | 0.00 | 0.00 | 56 | 1011.4 |
| 20260504224200 | 78 | 138 | 5.0 | 10.0 | 0.00 | 0.00 | 0.00 | 57 | 1011.3 |
| 20260504223701 | 78 | 188 | 6.0 | 10.0 | 0.00 | 0.00 | 0.00 | 57 | 1011.3 |
| 20260504223201 | 78 | 179 | 2.0 | 6.0 | 0.00 | 0.00 | 0.00 | 57 | 1011.5 |
| 20260504222700 | 78 | 176 | 4.0 | 7.0 | 0.00 | 0.00 | 0.00 | 57 | 1011.6 |
| 20260504222201 | 78 | 188 | 3.0 | 6.0 | 0.00 | 0.00 | 0.00 | 57 | 1011.7 |
| 20260504221700 | 78 | 181 | 4.0 | 9.0 | 0.00 | 0.00 | 0.00 | 57 | 1011.6 |
| 20260504221200 | 78 | 179 | 8.0 | 13.0 | 0.00 | 0.00 | 0.00 | 56 | 1011.6 |
| 20260504220701 | 78 | 175 | 4.0 | 7.0 | 0.00 | 0.00 | 0.00 | 56 | 1011.8 |
| 20260504220200 | 78 | 158 | 6.0 | 9.0 | 0.00 | 0.00 | 0.00 | 56 | 1011.9 |
| 20260504215700 | 78 | 172 | 9.0 | 12.0 | 0.00 | 0.00 | 0.00 | 53 | 1011.9 |
| 20260504215202 | 78 | 166 | 7.0 | 11.0 | 0.00 | 0.00 | 0.00 | 54 | 1012.1 |
| 20260504214700 | 78 | 179 | 6.0 | 9.0 | 0.00 | 0.00 | 0.00 | 54 | 1012.1 |
| 20260504214200 | 78 | 234 | 5.0 | 8.0 | 0.00 | 0.00 | 0.00 | 54 | 1012.1 |
| 20260504213700 | 78 | 191 | 5.0 | 9.0 | 0.00 | 0.00 | 0.00 | 53 | 1012.2 |
| 20260504213201 | 78 | 208 | 3.0 | 8.0 | 0.00 | 0.00 | 0.00 | 54 | 1012.3 |
| 20260504212700 | 78 | 214 | 5.0 | 8.0 | 0.00 | 0.00 | 0.00 | 54 | 1012.4 |
| 20260504212204 | 78 | 234 | 4.0 | 5.0 | 0.00 | 0.00 | 0.00 | 55 | 1012.5 |
| 20260504211701 | 78 | 179 | 6.0 | 10.0 | 0.00 | 0.00 | 0.00 | 53 | 1012.5 |
| 20260504211200 | 78 | 179 | 4.0 | 6.0 | 0.00 | 0.00 | 0.00 | 54 | 1012.6 |
| 20260504210700 | 78 | 217 | 3.0 | 6.0 | 0.00 | 0.00 | 0.00 | 54 | 1012.7 |
| 20260504210201 | 78 | 202 | 3.0 | 6.0 | 0.00 | 0.00 | 0.00 | 54 | 1012.8 |
| 20260504205700 | 79 | 231 | 6.0 | 9.0 | 0.00 | 0.00 | 0.00 | 54 | 1012.9 |
| 20260504205203 | 79 | 188 | 6.0 | 12.0 | 0.00 | 0.00 | 0.00 | 53 | 1012.8 |
| 20260504204700 | 78 | 199 | 5.0 | 11.0 | 0.00 | 0.00 | 0.00 | 53 | 1012.9 |
| 20260504204200 | 78 | 216 | 4.0 | 5.0 | 0.00 | 0.00 | 0.00 | 53 | 1012.9 |
| 20260504203700 | 78 | 178 | 6.0 | 9.0 | 0.00 | 0.00 | 0.00 | 52 | 1013.0 |
| 20260504203200 | 78 | 200 | 4.0 | 10.0 | 0.00 | 0.00 | 0.00 | 51 | 1013.2 |
| 20260504202700 | 78 | 169 | 8.0 | 13.0 | 0.00 | 0.00 | 0.00 | 51 | 1013.2 |
| 20260504202200 | 78 | 180 | 7.0 | 13.0 | 0.00 | 0.00 | 0.00 | 51 | 1013.3 |
| 20260504201700 | 77 | 233 | 5.0 | 9.0 | 0.00 | 0.00 | 0.00 | 54 | 1013.4 |
| 20260504201200 | 77 | 190 | 4.0 | 7.0 | 0.00 | 0.00 | 0.00 | 53 | 1013.6 |
| 20260504200700 | 77 | 157 | 5.0 | 9.0 | 0.00 | 0.00 | 0.00 | 52 | 1013.5 |
| 20260504200202 | 77 | 173 | 7.0 | 12.0 | 0.00 | 0.00 | 0.00 | 52 | 1013.6 |
| 20260504195700 | 77 | 220 | 7.0 | 12.0 | 0.00 | 0.00 | 0.00 | 52 | 1013.7 |
| 20260504195200 | 77 | 232 | 7.0 | 11.0 | 0.00 | 0.00 | 0.00 | 51 | 1013.8 |
| 20260504194701 | 77 | 166 | 4.0 | 9.0 | 0.00 | 0.00 | 0.00 | 52 | 1013.9 |
| 20260504194201 | 77 | 228 | 8.0 | 11.0 | 0.00 | 0.00 | 0.00 | 51 | 1013.9 |
| 20260504193701 | 77 | 226 | 4.0 | 7.0 | 0.00 | 0.00 | 0.00 | 52 | 1014.1 |
| 20260504193201 | 77 | 214 | 5.0 | 9.0 | 0.00 | 0.00 | 0.00 | 51 | 1014.2 |
| 20260504192700 | 77 | 212 | 4.0 | 9.0 | 0.00 | 0.00 | 0.00 | 51 | 1014.2 |
| 20260504192200 | 76 | 226 | 5.0 | 9.0 | 0.00 | 0.00 | 0.00 | 50 | 1014.2 |
| 20260504191700 | 77 | 175 | 6.0 | 9.0 | 0.00 | 0.00 | 0.00 | 50 | 1014.4 |
| 20260504191201 | 76 | 164 | 6.0 | 8.0 | 0.00 | 0.00 | 0.00 | 51 | 1014.5 |
| 20260504190700 | 76 | 177 | 5.0 | 13.0 | 0.00 | 0.00 | 0.00 | 51 | 1014.4 |
| 20260504190200 | 76 | 228 | 5.0 | 8.0 | 0.00 | 0.00 | 0.00 | 48 | 1014.6 |
| 20260504185700 | 76 | 238 | 5.0 | 7.0 | 0.00 | 0.00 | 0.00 | 49 | 1014.8 |
| 20260504185200 | 76 | 196 | 6.0 | 9.0 | 0.00 | 0.00 | 0.00 | 51 | 1014.7 |
| 20260504184701 | 76 | 213 | 5.0 | 8.0 | 0.00 | 0.00 | 0.00 | 51 | 1014.9 |
| 20260504184207 | 76 | 179 | 3.0 | 7.0 | 0.00 | 0.00 | 0.00 | 54 | 1014.9 |
| 20260504183701 | 75 | 175 | 4.0 | 6.0 | 0.00 | 0.00 | 0.00 | 53 | 1014.9 |
| 20260504183200 | 75 | 178 | 6.0 | 13.0 | 0.00 | 0.00 | 0.00 | 52 | 1014.9 |
| 20260504182700 | 75 | 253 | 7.0 | 12.0 | 0.00 | 0.00 | 0.00 | 52 | 1015.0 |
| 20260504182200 | 75 | 146 | 4.0 | 7.0 | 0.00 | 0.00 | 0.00 | 52 | 1015.1 |
| 20260504181700 | 75 | 173 | 3.0 | 5.0 | 0.00 | 0.00 | 0.00 | 52 | 1015.2 |
| 20260504181201 | 75 | 198 | 2.0 | 7.0 | 0.00 | 0.00 | 0.00 | 53 | 1015.4 |
| 20260504180703 | 75 | 188 | 5.0 | 8.0 | 0.00 | 0.00 | 0.00 | 54 | 1015.5 |
| 20260504180201 | 75 | 185 | 4.0 | 10.0 | 0.00 | 0.00 | 0.00 | 52 | 1015.6 |
| 20260504175700 | 74 | 173 | 2.0 | 5.0 | 0.00 | 0.00 | 0.00 | 53 | 1015.6 |
| 20260504175201 | 74 | 182 | 7.0 | 14.0 | 0.00 | 0.00 | 0.00 | 52 | 1015.6 |
| 20260504174702 | 74 | 157 | 7.0 | 9.0 | 0.00 | 0.00 | 0.00 | 54 | 1015.7 |
| 20260504174201 | 74 | 193 | 5.0 | 9.0 | 0.00 | 0.00 | 0.00 | 58 | 1015.7 |
| 20260504173700 | 74 | 212 | 3.0 | 6.0 | 0.00 | 0.00 | 0.00 | 55 | 1015.8 |
| 20260504173201 | 74 | 153 | 8.0 | 12.0 | 0.00 | 0.00 | 0.00 | 53 | 1015.8 |
| 20260504172701 | 74 | 159 | 8.0 | 11.0 | 0.00 | 0.00 | 0.00 | 52 | 1015.8 |
| 20260504172201 | 74 | 142 | 9.0 | 13.0 | 0.00 | 0.00 | 0.00 | 52 | 1015.9 |
| 20260504171700 | 73 | 145 | 3.0 | 6.0 | 0.00 | 0.00 | 0.00 | 57 | 1016.1 |
| 20260504171200 | 74 | 164 | 10.0 | 15.0 | 0.00 | 0.00 | 0.00 | 54 | 1016.1 |
| 20260504170702 | 73 | 161 | 5.0 | 8.0 | 0.00 | 0.00 | 0.00 | 55 | 1016.1 |
| 20260504170200 | 73 | 237 | 6.0 | 11.0 | 0.00 | 0.00 | 0.00 | 55 | 1016.3 |
| 20260504160200 | 71 | 188 | 4.0 | 9.0 | 0.00 | 0.00 | 0.00 | 56 | 1016.7 |
| 20260504150700 | 69 | 215 | 6.0 | 9.0 | 0.00 | 0.00 | 0.00 | 61 | 1016.8 |
| 20260504150201 | 69 | 186 | 6.0 | 11.0 | 0.00 | 0.00 | 0.00 | 61 | 1017.0 |
| 20260504141201 | 66 | 222 | 3.0 | 6.0 | 0.00 | 0.00 | 0.00 | 68 | 1017.1 |
| 20260504140700 | 66 | 206 | 4.0 | 6.0 | 0.00 | 0.00 | 0.00 | 70 | 1017.0 |
| 20260504140202 | 66 | 209 | 4.0 | 8.0 | 0.00 | 0.00 | 0.00 | 69 | 1017.0 |
| 20260504130700 | 62 | 168 | 0.0 | 2.0 | 0.00 | 0.00 | 0.00 | 78 | 1017.0 |
| 20260504130201 | 61 | 240 | 1.0 | 3.0 | 0.00 | 0.00 | 0.00 | 79 | 1016.9 |
| 20260504120201 | 53 | 0 | 0.0 | 0.0 | 0.00 | 0.00 | 0.00 | 93 | 1016.2 |
| 20260504110701 | 52 | 0 | 0.0 | 0.0 | 0.00 | 0.00 | 0.00 | 91 | 1016.1 |
| 20260504110200 | 52 | 0 | 0.0 | 0.0 | 0.00 | 0.00 | 0.00 | 91 | 1016.1 |
| 20260504100200 | 54 | 0 | 0.0 | 0.0 | 0.00 | 0.00 | 0.00 | 89 | 1016.4 |
| 20260504081701 | 55 | 0 | 0.0 | 0.0 | 0.00 | 0.00 | 0.00 | 87 | 1016.5 |
| 20260504081200 | 56 | 0 | 0.0 | 0.0 | 0.00 | 0.00 | 0.00 | 87 | 1016.6 |
| 20260504080700 | 56 | 0 | 0.0 | 0.0 | 0.00 | 0.00 | 0.00 | 87 | 1016.6 |
| 20260504080200 | 56 | 0 | 0.0 | 0.0 | 0.00 | 0.00 | 0.00 | 86 | 1016.6 |
| 20260504070201 | 58 | 0 | 0.0 | 0.0 | 0.00 | 0.00 | 0.00 | 83 | 1017.3 |
| 20260504060203 | 58 | 0 | 0.0 | 0.0 | 0.00 | 0.00 | 0.00 | 85 | 1017.9 |